Location: Boiro
(42.6475°N, 8.8834°W)
Time: 13:55:34
(UTC+01:00)

Envisat - Pass Details

Date: 26 October 2021
Orbit: 764 x 766 km, 98.2° (Epoch: 07 December)

Event Time Altitude Azimuth Distance (km) Brightness Sun altitude
Rises 08:23:32 0° 6° (N) 3,242 6.2 -7.7°
Reaches altitude 10° 08:25:57 10° 359° (N) 2,311 5.4 -7.3°
Maximum altitude 08:30:41 41° 291° (WNW) 1,104 3.4 -6.4°
Drops below altitude 10° 08:35:24 10° 222° (SW) 2,295 5.2 -5.6°
Sets 08:37:48 0° 215° (SW) 3,217 6.0 -5.2°
